Wind_Speed
30 30 30 32 32 32 34 36 36 37 41 44 44 46 48 51 53 54 54 54 55 55 56 57 57 56 57 57 53 47 47 48 45 42 41 38 35 32 30 26 24 21 20 17 15 14 13 10 9 7 5 6 7 9 11 12 11 10 10 11 11 12 14
31 29 29 31 33 34 34 36 37 38 40 41 43 45 47 49 52 54 55 56 57 57 56 57 59 58 57 57 54 51 50 51 49 45 43 40 37 34 32 29 26 24 23 21 18 16 15 13 11 10 8 6 6 7 9 11 11 11 10 11 11 12 13
32 31 30 31 33 35 35 36 38 38 39 40 42 44 46 48 51 53 55 57 58 58 57 57 59 60 59 57 55 52 51 51 51 49 45 42 40 36 34 33 30 27 25 24 21 19 17 15 14 13 11 9 7 6 7 9 11 11 11 11 12 12 13
32 32 32 32 33 34 34 35 38 38 39 41 43 43 45 47 49 52 54 57 59 59 58 58 59 60 61 60 57 54 53 52 51 50 47 44 41 38 37 36 32 29 28 26 24 21 19 18 17 15 14 13 10 8 7 8 10 11 11 11 12 13 13
32 32 33 32 32 34 34 34 36 38 39 42 43 44 44 46 48 50 53 56 59 60 60 61 61 61 61 63 62 59 57 54 52 50 48 45 42 40 39 37 34 32 30 28 26 24 21 20 19 18 17 16 14 12 10 9 9 11 12 12 12 13 13
33 32 32 32 32 34 34 33 34 37 40 42 44 45 45 45 46 48 52 55 59 62 63 63 62 62 62 64 65 64 62 59 55 52 49 47 45 42 40 38 36 34 32 31 29 26 24 22 21 20 19 18 17 16 13 11 10 10 11 12 12 12 13
34 32 31 32 33 35 35 33 32 35 38 41 43 46 47 46 46 47 50 54 58 62 64 64 63 63 63 64 67 68 67 63 59 55 52 49 47 45 41 38 36 34 33 34 32 30 28 25 23 22 21 20 20 19 17 15 13 12 12 12 13 12 12
34 33 31 33 35 36 35 31 29 32 36 39 43 46 47 47 47 47 49 52 57 61 64 65 64 64 64 64 66 69 70 67 61 57 55 51 48 46 43 40 38 36 36 37 36 34 31 28 26 24 23 22 22 21 21 19 17 15 13 13 13 13 12
35 34 33 33 36 37 34 29 27 30 33 37 41 44 45 47 48 49 50 51 54 59 63 65 66 66 65 64 65 68 72 71 65 59 56 53 50 48 46 44 43 41 41 41 39 37 35 32 29 27 25 24 24 23 23 22 21 19 17 15 14 14 13
37 36 36 35 35 36 34 29 28 30 32 34 38 40 42 45 47 50 51 52 53 57 61 64 66 67 66 64 65 67 72 73 70 64 58 54 52 51 50 49 49 46 42 40 39 38 38 36 32 30 28 26 26 25 25 25 24 23 21 19 18 17 16
39 39 39 37 35 35 34 31 29 31 32 32 34 37 38 41 44 47 51 53 54 56 59 62 65 67 67 66 66 67 71 74 74 70 64 57 54 53 52 52 54 51 45 41 40 40 40 39 36 33 31 29 28 28 28 27 27 26 25 23 22 20 19
42 42 41 38 36 35 34 31 30 31 31 30 31 33 34 37 39 43 47 52 55 56 57 60 64 66 68 69 68 68 70 73 75 73 69 63 57 55 55 55 56 54 51 47 45 43 41 40 39 37 34 32 31 30 30 29 29 29 28 27 25 24 23
43 44 42 39 37 35 32 30 31 31 29 28 30 32 32 34 37 39 42 49 54 56 57 59 62 66 69 70 70 69 69 71 73 74 73 68 63 59 57 57 57 56 55 51 48 46 44 40 39 40 39 36 35 32 32 31 31 31 30 30 29 28 27
45 45 44 40 35 32 30 30 30 30 28 28 30 31 31 33 35 37 39 45 51 55 57 59 61 65 68 70 70 70 69 70 72 73 74 73 69 65 60 58 58 59 58 55 50 48 46 43 42 43 43 41 38 36 34 33 33 32 32 31 30 30 29
45 45 43 37 31 29 29 29 29 29 28 27 28 29 30 32 34 35 38 42 48 53 56 59 61 63 66 69 71 71 70 70 71 72 75 75 73 70 65 61 60 60 60 59 55 52 50 48 45 45 45 45 41 39 38 36 34 34 33 32 31 31 30
41 40 37 31 27 28 28 27 27 28 25 23 24 26 29 32 33 34 36 40 45 50 54 58 60 62 65 68 71 71 71 71 71 71 74 76 76 74 69 65 63 62 62 61 59 57 54 53 51 48 47 47 44 42 40 38 36 35 35 34 33 33 32
35 33 30 27 26 26 25 24 25 24 21 20 22 26 29 32 33 33 34 37 42 46 51 55 58 61 64 67 70 71 72 72 71 71 73 76 78 78 73 68 66 65 64 63 62 60 57 55 55 55 52 49 47 45 43 40 39 38 37 36 36 35 34
31 29 26 24 24 24 22 22 22 21 19 21 24 27 29 31 31 31 31 34 39 43 46 51 55 60 63 66 68 70 72 72 71 71 73 75 78 81 78 73 69 67 67 67 64 62 60 58 57 57 56 52 49 47 45 43 42 40 39 39 38 37 36
28 26 23 23 23 22 20 19 19 18 18 21 25 26 27 28 28 28 28 30 35 39 42 47 52 57 62 65 67 69 71 73 73 73 73 74 77 81 81 78 74 68 66 68 66 62 61 61 59 58 57 54 51 49 47 46 43 41 40 41 41 40 39
26 24 23 23 23 20 18 17 16 16 16 19 22 21 21 23 26 27 27 28 32 36 39 44 48 54 60 64 66 68 70 72 74 75 74 74 77 81 83 82 79 71 65 65 66 63 60 60 61 60 58 56 54 51 48 46 44 41 40 42 44 44 43
25 24 23 23 21 19 16 15 14 15 15 15 15 15 17 21 24 26 26 25 27 31 35 40 45 51 57 62 65 67 69 72 75 77 76 74 77 81 82 83 82 77 69 64 65 65 62 58 59 61 60 57 55 52 48 46 45 43 42 42 44 46 46
26 24 23 22 20 17 14 13 14 14 12 9 8 10 15 20 22 23 23 24 25 28 31 37 43 48 54 60 63 66 69 72 75 78 77 76 77 80 81 82 82 80 74 68 65 66 65 61 59 59 60 60 57 53 51 49 47 45 44 44 46 47 48
26 23 21 20 17 15 14 13 13 11 6 4 6 8 12 15 17 20 22 23 24 25 27 32 39 46 52 58 62 65 68 71 75 77 78 77 78 79 81 81 81 80 76 71 67 64 64 64 60 56 55 57 57 56 54 52 50 47 46 47 49 50 51
23 21 20 18 16 15 14 14 12 7 3 3 6 7 9 11 12 16 20 22 23 24 25 28 34 42 49 55 60 64 67 71 74 76 78 77 78 80 80 80 80 79 75 72 68 63 61 64 63 57 52 50 50 53 55 54 53 52 51 51 52 52 53
22 20 19 17 16 16 15 14 11 5 2 2 4 7 9 9 8 9 14 18 21 23 24 26 29 36 44 52 58 62 66 70 74 77 78 77 77 79 80 79 79 78 75 72 69 62 59 62 64 61 56 51 49 48 50 53 55 54 54 55 56 56 57
22 21 19 17 17 16 13 11 9 5 3 3 4 7 9 9 9 8 8 11 16 20 22 24 26 30 38 46 54 60 65 69 73 77 79 78 77 79 80 80 79 79 77 75 70 63 58 57 60 59 54 52 54 53 49 50 54 56 58 61 62 62 62
23 22 20 18 18 16 11 8 8 8 7 6 7 8 8 8 9 9 8 8 10 14 18 22 24 27 32 39 48 56 63 68 72 76 80 80 79 78 79 79 79 80 79 77 74 67 58 54 58 58 49 44 51 57 54 51 53 59 65 69 68 66 63
24 23 20 19 18 17 14 11 10 10 9 8 9 11 10 9 8 9 9 10 9 9 13 18 22 26 29 34 41 50 59 66 70 74 79 81 81 80 79 79 80 81 80 79 77 73 64 57 58 59 52 42 44 51 53 50 51 58 65 70 71 69 66
24 23 22 20 18 18 19 16 13 11 10 10 13 15 13 10 9 10 10 11 10 10 10 13 18 23 27 30 35 43 53 62 68 73 78 81 81 81 80 79 80 81 81 81 81 78 72 64 60 60 57 49 43 45 50 51 52 54 56 60 65 69 70
25 23 22 20 18 20 21 19 15 14 14 14 15 17 16 13 11 11 13 12 12 12 11 11 14 18 23 27 31 37 47 57 65 71 76 79 81 82 81 79 80 81 82 82 83 82 77 70 66 65 61 52 44 42 44 46 47 48 49 52 56 62 68
26 24 22 21 20 22 23 21 18 17 17 17 18 19 19 16 14 14 15 14 13 13 13 13 13 14 18 24 28 33 41 50 59 67 73 78 82 83 82 79 78 81 82 83 84 85 81 74 72 73 69 59 52 48 44 44 46 49 52 54 56 59 64
27 25 24 24 24 25 24 22 20 18 18 18 20 22 22 19 18 18 18 16 15 15 14 14 14 14 15 19 24 30 35 43 53 62 70 77 81 84 85 82 79 80 82 82 83 86 85 79 76 80 80 75 69 63 56 54 54 55 56 58 60 62 64
28 27 27 27 27 27 26 24 22 19 19 19 21 23 24 22 20 20 20 19 18 17 15 14 15 15 15 16 19 24 30 37 46 56 65 73 80 83 86 85 82 81 82 82 81 83 85 83 79 81 86 87 82 74 68 67 67 67 67 66 64 63 65
29 29 29 29 30 29 28 26 24 22 22 23 23 24 25 25 23 22 22 21 20 19 17 15 15 15 16 17 16 18 24 30 38 48 58 68 76 82 85 87 85 83 83 85 83 80 80 82 82 82 85 88 87 81 77 78 80 80 79 76 70 66 67
31 31 31 32 32 31 30 29 27 27 27 27 27 27 27 28 27 25 25 24 22 21 20 17 15 15 16 17 17 16 18 23 31 40 50 61 71 79 84 86 87 86 85 87 86 83 79 78 80 83 84 85 86 86 86 87 88 87 85 83 79 75 72
34 34 34 34 33 33 32 32 32 31 31 30 30 30 30 29 29 28 28 27 25 24 22 20 17 16 16 17 18 17 16 18 23 32 42 53 64 74 81 85 87 87 87 88 89 88 84 80 79 82 84 84 84 84 86 87 88 88 88 87 86 83 81
36 36 35 35 35 35 36 36 35 34 33 33 32 32 31 30 30 30 29 29 28 27 25 22 20 18 18 18 18 18 18 17 19 25 34 45 56 67 77 83 86 87 87 88 90 91 90 86 83 82 84 84 83 80 80 81 83 85 88 89 89 89 88
Wind_Direction
237 235 240 244 244 244 245 245 244 242 240 235 230 228 225 223 223 222 221 222 223 222 220 221 218 214 213 214 214 210 207 213 215 209 206 205 204 210 217 216 211 211 215 216 218 218 215 205 194 185 153 118 102 98 101 103 110 118 124 129 132 134 137
246 241 240 243 244 243 244 245 245 244 243 239 234 230 227 225 222 221 220 221 222 222 221 220 220 216 213 214 215 210 206 210 213 209 206 206 204 207 214 216 213 213 215 216 217 217 215 210 200 194 183 155 128 114 111 111 113 120 129 134 138 140 142
249 249 246 245 246 245 244 245 245 244 244 242 238 233 229 226 223 220 220 220 221 222 221 220 220 218 215 214 214 211 207 210 213 211 209 208 206 205 211 215 214 216 218 217 217 217 216 214 206 199 195 182 163 141 128 123 121 123 130 137 143 145 148
248 251 250 248 250 250 247 247 247 245 244 244 241 236 231 227 224 220 219 220 220 221 221 220 220 218 215 213 212 210 206 209 214 214 210 210 209 207 210 214 216 218 220 219 217 217 216 215 210 204 199 193 185 172 156 142 134 131 133 139 146 150 153
247 250 253 254 256 256 252 250 249 245 243 243 242 239 234 230 226 222 219 219 220 219 219 219 218 217 215 212 210 208 206 209 213 214 211 210 210 209 210 215 217 218 222 224 221 218 217 217 214 208 202 199 195 187 178 168 154 144 140 141 146 152 156
248 250 256 260 263 264 258 253 252 248 243 241 241 240 237 232 228 224 220 218 219 219 219 219 219 217 215 212 209 207 206 208 210 211 211 210 209 208 209 215 220 221 223 227 227 222 219 218 217 214 208 203 201 197 190 185 177 163 153 149 149 152 156
250 251 258 264 268 270 264 256 254 252 245 241 239 238 237 234 230 227 223 219 218 219 219 219 219 219 216 213 210 207 207 208 209 207 208 208 208 208 208 212 220 224 224 227 229 227 223 220 218 217 215 209 205 204 199 195 191 183 173 164 159 157 158
252 255 260 266 271 273 270 264 261 256 249 242 239 236 236 235 232 229 225 221 219 218 218 218 218 219 218 215 212 209 208 209 209 207 206 206 206 207 206 209 215 221 224 226 228 228 226 223 219 218 219 216 212 210 206 202 198 196 191 183 174 169 166
256 258 261 266 272 275 275 271 264 256 250 245 240 236 234 234 232 230 227 224 220 218 218 218 217 218 218 217 213 210 209 210 209 207 206 206 207 207 206 207 208 214 221 226 228 229 229 227 223 219 219 220 219 216 212 209 205 203 202 200 194 187 182
258 260 262 265 271 275 276 271 260 251 249 247 243 238 234 233 232 231 228 225 222 220 218 217 217 217 218 217 215 212 211 211 211 209 207 207 209 211 210 208 207 208 215 223 227 228 229 229 227 223 221 221 222 221 218 215 212 209 207 207 208 204 199
258 260 263 265 269 274 274 267 256 249 248 247 246 243 239 235 233 231 229 227 224 221 219 217 217 217 216 217 216 213 212 212 212 211 210 208 208 212 213 210 208 208 210 215 219 223 227 229 230 228 224 222 223 225 223 220 218 215 212 211 213 215 213
258 261 264 267 270 272 270 261 253 250 250 249 249 246 244 240 236 232 231 229 226 222 220 218 217 216 216 215 215 214 213 212 212 213 212 209 207 208 210 211 211 210 210 212 214 217 223 227 230 231 229 226 225 226 227 226 223 221 219 216 215 218 220
259 262 264 267 270 270 265 256 251 251 251 250 249 247 244 242 239 235 233 231 228 223 220 219 217 215 215 215 215 214 214 213 212 212 212 210 207 205 206 210 213 211 210 212 212 214 217 222 228 232 232 229 227 227 229 230 229 227 225 222 219 219 221
259 263 265 267 267 263 255 250 250 250 248 247 248 247 244 242 240 237 234 232 229 225 221 219 217 216 215 215 214 214 214 213 212 211 211 210 208 206 205 208 212 213 212 213 213 213 214 217 223 229 231 231 229 228 229 230 231 232 231 230 228 226 225
259 262 264 264 259 251 245 245 248 250 248 247 249 250 248 245 240 237 235 233 229 226 222 219 217 216 215 214 214 213 213 214 212 211 210 209 208 208 207 208 211 213 214 215 215 214 214 215 218 224 228 229 229 230 230 230 232 233 234 234 235 234 232
257 259 260 256 247 240 240 243 247 251 254 254 254 253 251 248 244 238 235 234 230 226 223 220 217 217 216 214 213 212 212 213 212 211 210 209 208 210 210 209 210 214 215 215 216 216 215 215 217 220 223 225 228 230 231 231 232 234 236 236 236 237 238
253 252 249 242 236 235 237 242 247 253 258 257 252 249 248 248 246 241 237 235 232 228 224 221 218 217 217 215 213 212 211 212 212 211 210 209 209 210 211 210 211 214 217 217 217 217 217 217 218 221 223 225 228 230 232 234 233 234 237 238 238 238 239
247 242 236 230 230 233 238 244 250 254 255 253 249 247 247 247 247 244 240 236 234 230 225 222 219 217 217 216 214 212 211 211 212 211 210 209 209 209 211 211 212 214 218 219 218 217 218 219 219 221 223 225 228 230 233 236 235 233 235 239 240 239 238
236 231 223 222 228 233 239 246 252 255 253 252 251 251 251 251 250 248 243 237 235 231 225 221 219 217 217 216 214 212 211 210 211 211 210 210 209 210 211 212 212 213 215 219 221 219 219 220 221 222 223 225 228 230 233 236 236 234 234 237 240 240 239
225 221 217 221 228 233 239 245 251 255 255 254 257 257 254 252 250 248 243 236 233 232 227 222 220 218 216 216 214 213 211 210 210 210 210 210 210 210 211 212 213 212 211 215 220 220 219 221 222 223 225 226 228 230 232 236 237 237 237 238 241 243 242
218 217 216 222 228 231 235 240 248 255 256 258 265 264 253 248 246 247 246 239 233 231 228 223 220 217 216 215 214 213 212 210 209 210 209 209 209 210 211 211 212 212 211 212 216 219 220 221 222 224 225 227 228 228 230 234 237 239 241 242 243 245 245
216 217 218 222 225 225 226 235 247 255 259 265 274 266 254 249 247 247 248 244 237 232 228 224 221 218 216 214 213 213 212 210 210 210 210 210 209 210 211 211 212 213 213 213 215 219 221 222 222 224 226 227 228 227 226 227 231 237 242 245 246 246 246
216 217 217 217 215 213 216 228 243 252 262 273 273 270 266 260 252 246 245 245 242 236 230 225 222 219 217 214 212 212 212 211 210 210 211 211 210 210 211 211 212 213 214 214 215 219 222 223 222 223 226 228 228 229 228 226 227 231 236 241 245 246 247
215 212 210 207 203 203 210 221 233 238 233 261 277 285 285 279 265 252 248 247 246 242 236 230 225 222 219 215 212 212 212 211 210 209 211 212 211 211 211 212 212 212 213 213 213 215 220 223 224 223 225 227 229 229 230 230 229 229 231 234 237 241 243
207 203 200 197 196 202 209 216 223 217 178 218 279 289 295 308 311 281 261 253 249 247 242 236 230 225 221 218 215 213 212 211 210 209 210 211 212 211 211 212 212 212 211 211 211 210 214 220 224 225 226 229 231 232 232 232 232 233 234 235 235 236 238
198 197 195 193 196 205 211 213 221 228 213 219 251 271 291 324 344 332 298 270 256 251 247 242 237 230 225 222 219 216 213 212 210 209 209 211 212 212 211 212 213 211 210 210 209 207 209 215 219 221 224 231 235 236 236 232 230 231 234 236 236 236 237
195 197 197 194 198 207 211 205 212 229 237 241 253 266 286 319 339 345 339 315 281 261 249 244 239 235 230 225 222 220 216 214 212 210 210 211 212 212 211 211 213 213 211 209 208 207 207 208 210 213 218 227 232 232 231 228 225 227 230 232 233 234 236
197 198 199 199 202 212 219 218 219 233 246 255 263 270 283 306 325 337 341 337 324 295 264 248 240 235 232 229 226 223 220 217 214 212 211 211 212 212 211 211 213 214 212 209 208 208 207 206 206 209 214 218 219 218 218 216 218 224 230 233 233 234 235
201 200 201 202 205 215 226 232 236 245 254 259 263 269 280 296 310 316 318 324 332 325 296 268 251 240 233 231 229 226 223 220 217 214 212 211 211 211 211 212 212 213 213 210 209 210 210 207 203 205 211 213 210 209 210 210 214 220 226 230 232 234 236
206 203 204 207 210 219 230 238 246 251 256 259 262 267 277 287 294 295 298 306 318 324 320 303 276 254 240 234 232 229 226 222 220 217 213 212 211 210 211 212 213 213 213 212 210 210 212 209 202 200 206 208 203 199 201 204 209 213 217 221 227 232 236
211 209 210 213 218 226 234 241 246 251 256 261 264 268 274 282 285 284 286 295 304 311 318 320 306 279 254 240 235 233 230 225 222 219 216 213 212 211 210 212 213 213 213 213 211 211 212 210 203 200 203 207 206 205 205 205 207 212 217 222 227 231 234
215 215 215 218 223 230 236 241 245 251 258 264 268 269 272 276 278 278 280 286 292 298 306 314 316 307 280 253 239 236 234 229 224 221 218 215 213 212 211 211 213 213 213 213 213 212 212 212 207 204 206 212 217 222 225 222 219 220 223 225 229 231 233
220 219 220 224 228 234 239 244 248 255 261 265 267 268 270 272 274 274 275 278 282 288 295 304 311 315 305 280 253 239 237 234 227 223 220 218 216 214 213 212 213 214 214 213 213 213 213 214 212 209 210 215 221 226 228 227 226 228 228 228 229 230 231
228 227 227 230 234 238 243 247 250 255 260 263 265 267 270 272 273 271 271 271 274 279 286 294 303 310 311 301 278 251 240 237 232 225 221 220 218 216 214 213 214 214 214 213 213 213 213 214 215 213 214 217 222 225 227 227 228 229 229 227 229 230 229
234 234 234 235 238 241 245 248 251 254 258 261 265 268 269 270 272 271 269 269 271 275 279 286 293 300 305 306 297 275 251 241 235 228 222 220 219 218 216 215 215 215 215 214 213 213 212 213 215 215 216 218 221 223 226 228 229 230 229 227 228 231 232
235 238 239 241 243 246 248 250 252 255 259 262 266 267 268 268 269 269 269 269 270 272 274 279 285 290 295 300 302 295 275 253 240 231 224 220 219 218 218 216 216 216 216 215 215 214 213 213 214 215 217 218 221 223 226 228 229 231 231 230 229 230 233
236 238 241 244 247 248 250 252 255 258 261 264 265 266 266 266 266 267 268 268 269 269 271 274 278 282 286 291 297 298 290 274 255 239 229 222 220 219 218 218 217 217 217 217 217 216 216 215 215 216 217 219 222 226 228 229 229 230 232 233 232 232 234
Height
10854 10857 10857 10858 10860 10861 10861 10863 10865 10866 10866 10870 10875 10879 10881 10884 10887 10892 10895 10899 10902 10905 10909 10913 10919 10924 10928 10932 10937 10941 10944 10946 10950 10953 10956 10958 10961 10964 10967 10969 10970 10971 10973 10975 10976 10978 10980 10981 10982 10983 10983 10982 10981 10980 10979 10978 10978 10978 10978 10978 10978 10979 10980
10849 10853 10855 10855 10855 10856 10857 10858 10860 10861 10862 10865 10869 10872 10875 10878 10881 10886 10890 10893 10896 10899 10904 10909 10914 10919 10924 10928 10932 10936 10939 10942 10946 10949 10952 10955 10958 10961 10964 10966 10968 10969 10970 10972 10975 10976 10978 10979 10980 10981 10982 10983 10982 10981 10980 10979 10978 10978 10978 10978 10979 10979 10980
10846 10849 10850 10850 10850 10851 10853 10854 10855 10857 10858 10860 10862 10865 10868 10872 10875 10880 10884 10887 10890 10894 10900 10905 10909 10914 10920 10925 10929 10933 10937 10940 10943 10947 10950 10953 10955 10958 10961 10963 10965 10966 10968 10971 10973 10975 10976 10978 10979 10980 10981 10982 10982 10982 10981 10980 10979 10979 10979 10979 10979 10980 10980
10843 10845 10845 10846 10846 10846 10849 10850 10850 10853 10854 10854 10856 10858 10862 10866 10869 10875 10879 10881 10886 10890 10895 10899 10902 10908 10914 10919 10924 10929 10933 10937 10941 10945 10949 10951 10954 10957 10959 10961 10963 10965 10967 10969 10971 10973 10975 10976 10977 10978 10979 10981 10981 10982 10982 10981 10981 10980 10979 10979 10980 10980 10980
10840 10841 10840 10842 10842 10841 10843 10844 10844 10847 10848 10848 10850 10853 10856 10860 10864 10868 10873 10876 10879 10883 10887 10890 10894 10899 10905 10911 10917 10922 10927 10932 10936 10941 10945 10949 10952 10955 10958 10960 10963 10964 10966 10968 10970 10972 10974 10975 10976 10976 10977 10979 10980 10981 10982 10982 10981 10981 10980 10980 10980 10980 10980
10835 10836 10837 10838 10837 10835 10836 10839 10840 10840 10842 10843 10844 10847 10850 10853 10858 10862 10866 10870 10872 10875 10879 10883 10887 10893 10898 10903 10909 10915 10920 10925 10929 10934 10939 10944 10948 10952 10956 10960 10963 10964 10965 10967 10968 10970 10972 10974 10975 10975 10976 10977 10978 10980 10981 10982 10982 10981 10981 10980 10980 10980 10981
10830 10832 10834 10833 10831 10830 10830 10834 10835 10835 10836 10837 10839 10841 10843 10848 10852 10855 10859 10863 10865 10868 10873 10878 10884 10888 10892 10898 10904 10910 10915 10919 10922 10927 10931 10937 10943 10949 10955 10960 10964 10966 10966 10965 10966 10968 10970 10972 10973 10974 10974 10975 10977 10978 10979 10980 10981 10982 10981 10981 10981 10981 10981
10825 10827 10830 10828 10826 10825 10826 10829 10831 10830 10830 10831 10832 10834 10838 10842 10846 10849 10853 10856 10859 10863 10868 10873 10878 10882 10886 10893 10899 10905 10910 10915 10920 10923 10927 10932 10938 10945 10951 10956 10961 10964 10963 10962 10963 10965 10967 10969 10971 10973 10973 10974 10975 10976 10977 10978 10980 10981 10981 10981 10981 10981 10981
10820 10822 10824 10824 10821 10820 10821 10824 10825 10824 10824 10824 10826 10829 10833 10836 10839 10843 10846 10850 10854 10858 10861 10866 10870 10875 10881 10888 10894 10900 10906 10912 10918 10922 10925 10930 10935 10940 10945 10949 10953 10957 10957 10959 10961 10963 10965 10967 10969 10970 10972 10972 10973 10974 10975 10976 10978 10979 10980 10980 10981 10981 10981
10814 10816 10818 10819 10818 10816 10817 10819 10819 10820 10819 10819 10821 10824 10828 10830 10833 10836 10839 10843 10848 10851 10855 10859 10864 10870 10877 10883 10889 10895 10900 10905 10911 10917 10922 10926 10931 10935 10939 10942 10945 10948 10951 10955 10959 10961 10962 10964 10966 10967 10969 10970 10971 10972 10973 10974 10975 10976 10977 10979 10980 10980 10981
10808 10809 10811 10813 10814 10812 10812 10813 10814 10814 10815 10816 10817 10819 10822 10825 10827 10830 10833 10836 10840 10843 10849 10854 10859 10865 10871 10876 10881 10887 10893 10898 10904 10910 10917 10922 10926 10930 10935 10937 10939 10941 10944 10949 10954 10957 10959 10961 10963 10964 10966 10968 10969 10970 10971 10972 10973 10974 10975 10976 10978 10979 10979
10802 10803 10805 10807 10808 10808 10808 10808 10809 10810 10812 10813 10814 10815 10817 10819 10821 10824 10826 10828 10832 10837 10843 10848 10852 10858 10862 10867 10873 10879 10885 10891 10898 10905 10911 10917 10921 10925 10929 10932 10934 10937 10939 10941 10946 10951 10955 10957 10960 10962 10963 10965 10966 10968 10969 10970 10970 10971 10972 10973 10975 10977 10978
10797 10798 10800 10802 10803 10803 10803 10804 10805 10806 10808 10810 10810 10811 10812 10813 10815 10818 10819 10821 10825 10830 10836 10840 10845 10849 10854 10859 10866 10872 10879 10885 10891 10898 10904 10909 10914 10918 10922 10926 10929 10933 10935 10937 10941 10945 10949 10954 10957 10959 10960 10961 10963 10965 10966 10967 10968 10969 10970 10971 10972 10974 10975
10792 10792 10794 10797 10799 10799 10799 10800 10801 10802 10804 10804 10805 10806 10807 10808 10810 10811 10812 10814 10818 10823 10828 10833 10837 10842 10847 10853 10859 10865 10872 10878 10884 10891 10896 10902 10907 10911 10916 10919 10923 10927 10931 10934 10938 10940 10944 10948 10952 10954 10955 10957 10959 10961 10963 10964 10966 10967 10969 10970 10971 10972 10973
10787 10787 10789 10791 10794 10794 10794 10795 10796 10797 10799 10801 10801 10802 10802 10803 10804 10805 10806 10808 10811 10816 10821 10825 10830 10835 10840 10845 10851 10858 10864 10871 10877 10884 10889 10895 10901 10906 10910 10914 10916 10920 10925 10929 10933 10935 10938 10941 10944 10948 10950 10952 10954 10957 10959 10962 10964 10966 10967 10969 10970 10971 10972
10782 10783 10784 10787 10788 10789 10790 10792 10793 10793 10796 10798 10799 10798 10797 10796 10797 10799 10801 10802 10804 10809 10813 10818 10823 10828 10832 10837 10843 10850 10857 10863 10870 10877 10882 10888 10894 10900 10905 10909 10911 10915 10919 10923 10927 10930 10933 10936 10938 10941 10943 10945 10949 10952 10955 10958 10961 10963 10965 10966 10968 10969 10970
10777 10778 10780 10782 10784 10785 10787 10789 10789 10790 10793 10794 10794 10793 10791 10790 10791 10793 10796 10797 10799 10803 10808 10813 10818 10823 10826 10830 10836 10843 10850 10857 10864 10870 10876 10882 10887 10892 10897 10902 10906 10909 10913 10917 10921 10924 10928 10931 10933 10936 10938 10941 10944 10947 10950 10954 10957 10960 10962 10963 10965 10967 10968
10773 10774 10777 10779 10780 10782 10784 10784 10785 10788 10789 10788 10787 10787 10786 10786 10787 10789 10792 10794 10795 10797 10802 10807 10812 10816 10819 10824 10830 10837 10844 10851 10857 10863 10868 10874 10880 10885 10890 10894 10899 10903 10906 10910 10914 10919 10922 10925 10929 10931 10934 10937 10940 10943 10947 10950 10953 10957 10959 10960 10962 10964 10965
10769 10771 10774 10776 10777 10779 10780 10781 10782 10784 10784 10783 10782 10782 10783 10783 10784 10786 10787 10789 10789 10792 10796 10800 10803 10808 10812 10817 10824 10830 10837 10844 10850 10855 10861 10868 10873 10877 10882 10887 10891 10896 10900 10904 10908 10913 10917 10920 10924 10927 10930 10933 10936 10940 10944 10946 10949 10954 10957 10957 10958 10959 10961
10766 10769 10771 10772 10774 10776 10777 10778 10779 10780 10780 10779 10779 10779 10780 10780 10780 10780 10781 10783 10785 10787 10790 10793 10797 10802 10806 10812 10818 10823 10829 10836 10841 10846 10852 10859 10864 10868 10873 10878 10883 10889 10894 10898 10903 10908 10912 10916 10919 10922 10926 10929 10933 10937 10942 10945 10948 10951 10953 10955 10955 10955 10958
10764 10766 10768 10770 10771 10773 10775 10775 10776 10776 10776 10776 10776 10776 10776 10775 10775 10776 10777 10780 10781 10782 10785 10788 10791 10795 10800 10806 10811 10816 10821 10827 10832 10837 10843 10849 10854 10859 10865 10871 10877 10883 10888 10893 10897 10902 10907 10911 10915 10917 10921 10925 10929 10934 10939 10943 10945 10947 10949 10951 10952 10952 10954
10761 10763 10765 10767 10769 10771 10772 10773 10773 10772 10772 10773 10774 10773 10772 10771 10772 10773 10774 10776 10777 10778 10781 10783 10786 10789 10793 10798 10804 10809 10814 10820 10824 10829 10834 10840 10845 10851 10858 10865 10871 10877 10882 10887 10891 10896 10901 10907 10910 10913 10917 10920 10925 10929 10933 10936 10939 10942 10945 10946 10947 10949 10950
10758 10760 10763 10765 10767 10769 10769 10770 10769 10769 10770 10771 10771 10770 10769 10769 10770 10770 10771 10772 10773 10775 10777 10779 10782 10784 10788 10793 10798 10803 10807 10812 10818 10823 10829 10834 10840 10846 10853 10859 10865 10870 10875 10880 10886 10891 10896 10902 10906 10910 10913 10916 10921 10924 10927 10930 10934 10938 10940 10940 10941 10943 10944
10756 10759 10761 10763 10765 10766 10766 10767 10767 10767 10768 10768 10768 10767 10767 10767 10767 10768 10769 10769 10771 10772 10774 10775 10778 10780 10783 10788 10792 10796 10800 10805 10811 10818 10824 10829 10835 10842 10848 10853 10858 10863 10868 10875 10881 10887 10892 10897 10902 10906 10909 10913 10916 10919 10922 10927 10930 10933 10934 10934 10935 10936 10937
10754 10757 10759 10761 10762 10763 10763 10764 10764 10765 10766 10766 10766 10765 10764 10764 10766 10766 10767 10767 10768 10770 10771 10773 10775 10777 10780 10783 10787 10790 10794 10799 10805 10811 10817 10823 10829 10835 10841 10846 10852 10858 10864 10870 10877 10883 10887 10892 10896 10901 10905 10908 10910 10913 10917 10922 10927 10930 10932 10931 10931 10930 10930
10752 10754 10756 10758 10759 10760 10760 10761 10762 10763 10764 10764 10764 10764 10763 10763 10764 10764 10764 10765 10766 10767 10768 10770 10772 10774 10776 10779 10782 10785 10788 10792 10798 10804 10810 10815 10820 10826 10833 10839 10846 10853 10858 10865 10872 10878 10883 10887 10891 10895 10900 10902 10903 10907 10911 10916 10921 10925 10926 10925 10924 10923 10924
10749 10751 10753 10755 10756 10757 10758 10759 10760 10760 10761 10762 10762 10762 10762 10762 10762 10762 10762 10762 10763 10764 10765 10766 10768 10769 10772 10774 10776 10780 10783 10787 10791 10797 10802 10807 10812 10818 10826 10833 10839 10845 10851 10859 10867 10873 10878 10881 10882 10887 10893 10894 10895 10898 10903 10908 10913 10914 10913 10914 10915 10916 10919
10746 10748 10750 10752 10754 10755 10755 10756 10757 10758 10758 10759 10759 10759 10760 10761 10761 10761 10761 10760 10760 10761 10761 10762 10764 10765 10767 10769 10771 10774 10777 10781 10785 10790 10794 10799 10805 10812 10819 10825 10831 10838 10845 10853 10860 10866 10871 10874 10875 10881 10888 10887 10885 10888 10894 10898 10901 10903 10903 10905 10907 10910 10912
10743 10745 10747 10749 10751 10752 10752 10753 10754 10755 10756 10757 10757 10756 10757 10758 10759 10759 10758 10758 10759 10759 10759 10759 10760 10761 10763 10765 10767 10769 10772 10775 10779 10783 10788 10793 10799 10806 10812 10817 10823 10830 10838 10846 10851 10857 10863 10867 10870 10876 10882 10882 10880 10883 10887 10889 10892 10895 10897 10898 10899 10901 10903
10740 10742 10744 10747 10749 10749 10749 10750 10751 10753 10753 10754 10754 10753 10754 10756 10757 10757 10756 10756 10756 10757 10757 10757 10757 10758 10760 10761 10762 10764 10766 10769 10773 10778 10783 10789 10794 10800 10806 10811 10816 10823 10830 10837 10843 10848 10854 10860 10863 10869 10875 10876 10876 10877 10879 10882 10885 10887 10888 10889 10890 10892 10894
10737 10740 10742 10744 10745 10745 10745 10746 10748 10750 10751 10751 10751 10751 10751 10753 10754 10754 10754 10754 10754 10755 10755 10755 10755 10755 10756 10757 10758 10759 10760 10763 10767 10772 10778 10783 10787 10793 10799 10805 10810 10816 10822 10828 10835 10841 10846 10851 10855 10861 10866 10867 10866 10866 10869 10873 10875 10876 10877 10879 10882 10884 10886
10734 10737 10740 10741 10741 10741 10742 10743 10745 10746 10748 10749 10748 10748 10748 10750 10751 10751 10751 10751 10752 10752 10753 10753 10752 10752 10752 10753 10754 10755 10756 10758 10762 10766 10771 10775 10780 10786 10792 10797 10803 10808 10814 10821 10827 10832 10837 10842 10847 10853 10856 10856 10855 10856 10859 10862 10864 10866 10868 10872 10875 10877 10878
10731 10734 10736 10736 10737 10738 10739 10740 10742 10743 10744 10745 10745 10744 10744 10746 10748 10748 10748 10748 10749 10749 10750 10750 10750 10749 10749 10749 10749 10751 10752 10754 10756 10760 10764 10769 10774 10779 10785 10790 10796 10801 10807 10813 10819 10823 10829 10834 10839 10845 10848 10846 10846 10848 10850 10852 10854 10857 10860 10865 10868 10870 10872
10727 10729 10731 10732 10733 10734 10735 10737 10739 10740 10740 10741 10741 10741 10741 10742 10744 10744 10745 10745 10746 10746 10746 10747 10747 10747 10746 10745 10745 10747 10748 10749 10751 10754 10758 10762 10767 10773 10778 10784 10789 10794 10800 10806 10811 10816 10821 10826 10831 10837 10839 10838 10839 10841 10842 10842 10845 10848 10852 10857 10861 10863 10865
10722 10724 10726 10727 10729 10731 10732 10734 10735 10736 10736 10736 10737 10738 10738 10738 10739 10740 10741 10741 10742 10743 10743 10744 10745 10745 10744 10743 10742 10743 10744 10745 10746 10748 10752 10756 10761 10766 10771 10777 10782 10787 10793 10799 10804 10808 10813 10818 10823 10827 10829 10830 10832 10834 10833 10833 10837 10840 10843 10848 10853 10856 10859
10717 10719 10721 10723 10725 10727 10728 10730 10731 10731 10732 10733 10734 10734 10734 10735 10735 10736 10736 10737 10738 10739 10739 10740 10741 10742 10741 10741 10740 10740 10740 10741 10741 10743 10746 10749 10753 10758 10764 10769 10774 10779 10785 10791 10796 10801 10805 10810 10814 10818 10820 10822 10825 10826 10824 10826 10831 10834 10836 10840 10847 10851 10853
10713 10715 10717 10719 10721 10722 10723 10724 10726 10728 10728 10729 10729 10730 10730 10731 10732 10732 10733 10734 10734 10735 10735 10737 10738 10738 10738 10738 10738 10737 10737 10737 10737 10738 10740 10743 10747 10751 10756 10761 10766 10771 10777 10783 10788 10793 10798 10802 10806 10809 10811 10813 10815 10816 10816 10819 10824 10827 10830 10834 10840 10844 10846